Tracking 23610 objects as of 20-Sep-2021
HD Live streaming from Space Station
objects crossing your sky now

STARLINK-2602

Track STARLINK-2602 now!
10-day predictions
STARLINK-2602 is classified as:


NORAD ID: 48393
Int'l Code: 2021-038AS
Perigee: 552.5 km
Apogee: 556.2 km
Inclination: 53.1 °
Period: 95.6 minutes
Semi major axis: 6925 km
RCS: Unknown
Launch date: May 4, 2021
Source: United States (US)
Launch site: AIR FORCE EASTERN TEST RANGE (AFETR)
aabbcc
Your satellite tracking list
Your tracking list is empty




NASA's NSSDC Master Catalog

Two Line Element Set (TLE):
1 48393U 21038AS  21262.91667824  .00007800  00000-0  54209-3 0  9995
2 48393  53.0540 106.9226 0002675  80.6403  22.4034 15.06390833  3582
Source of the keplerian elements: AFSPC